Time,TemperatureF,DewpointF,PressureIn,WindDirection,WindDirectionDegrees,WindSpeedMPH,WindSpeedGustMPH,Humidity,HourlyPrecipIn,Conditions,Clouds,dailyrainin,SolarRadiationWatts/m^2,SoftwareType,DateUTC
2013-02-19 00:01:00,34.0,32.0,-100.00,SSW,197,3.0,7.0,91,0.00,,,0.00,3.000000,,2013-02-19 08:01:00,
2013-02-19 00:11:00,34.0,32.0,-100.00,SSW,197,3.0,7.0,91,0.00,,,0.00,3.000000,,2013-02-19 08:11:00,
2013-02-19 00:42:00,34.0,34.0,-100.00,South,190,3.0,9.0,99,0.00,,,0.00,3.000000,,2013-02-19 08:42:00,
2013-02-19 00:52:00,34.0,34.0,-100.00,South,190,3.0,9.0,99,0.00,,,0.00,3.000000,,2013-02-19 08:52:00,
2013-02-19 01:01:00,34.0,34.0,-100.00,South,190,3.0,9.0,99,0.00,,,0.00,3.000000,,2013-02-19 09:01:00,
2013-02-19 01:11:00,34.0,34.0,-100.00,South,190,3.0,9.0,99,0.00,,,0.00,3.000000,,2013-02-19 09:11:00,
2013-02-19 01:32:00,33.0,32.0,-100.00,South,191,4.0,8.0,97,0.01,,,0.01,3.000000,,2013-02-19 09:32:00,
2013-02-19 01:42:00,33.0,32.0,-100.00,South,191,4.0,8.0,97,0.01,,,0.01,3.000000,,2013-02-19 09:42:00,
2013-02-19 01:53:00,33.0,32.0,-100.00,South,191,4.0,8.0,97,0.01,,,0.01,3.000000,,2013-02-19 09:53:00,
2013-02-19 02:01:00,33.0,32.0,-100.00,South,191,4.0,8.0,97,0.01,,,0.01,3.000000,,2013-02-19 10:01:00,
2013-02-19 02:11:00,33.0,32.0,-100.00,South,191,4.0,8.0,97,0.01,,,0.01,3.000000,,2013-02-19 10:11:00,
2013-02-19 02:32:00,33.0,32.0,-100.00,South,188,2.0,7.0,95,0.00,,,0.01,3.000000,,2013-02-19 10:32:00,
2013-02-19 02:42:00,33.0,32.0,-100.00,South,188,2.0,7.0,95,0.00,,,0.01,3.000000,,2013-02-19 10:42:00,
2013-02-19 02:52:00,33.0,32.0,-100.00,South,188,2.0,7.0,95,0.00,,,0.01,3.000000,,2013-02-19 10:52:00,
2013-02-19 03:01:00,33.0,32.0,-100.00,South,188,2.0,7.0,95,0.00,,,0.01,3.000000,,2013-02-19 11:01:00,
2013-02-19 03:11:00,33.0,32.0,-100.00,South,188,2.0,7.0,95,0.00,,,0.01,3.000000,,2013-02-19 11:11:00,
2013-02-19 03:42:00,33.0,32.0,-100.00,South,178,1.0,5.0,96,0.00,,,0.01,3.000000,,2013-02-19 11:42:00,
2013-02-19 03:52:00,33.0,32.0,-100.00,South,178,1.0,5.0,96,0.00,,,0.01,3.000000,,2013-02-19 11:52:00,
2013-02-19 04:01:00,33.0,32.0,-100.00,South,178,1.0,5.0,96,0.00,,,0.01,3.000000,,2013-02-19 12:01:00,
2013-02-19 04:12:00,33.0,32.0,-100.00,South,178,1.0,5.0,96,0.00,,,0.01,3.000000,,2013-02-19 12:12:00,
2013-02-19 04:32:00,33.0,32.0,-100.00,SSE,167,0.0,5.0,95,0.00,,,0.01,3.000000,,2013-02-19 12:32:00,
2013-02-19 04:42:00,33.0,32.0,-100.00,SSE,167,0.0,5.0,95,0.00,,,0.01,3.000000,,2013-02-19 12:42:00,
2013-02-19 04:52:00,33.0,32.0,-100.00,SSE,167,0.0,5.0,95,0.00,,,0.01,3.000000,,2013-02-19 12:52:00,
2013-02-19 05:01:00,33.0,32.0,-100.00,SSE,167,0.0,5.0,95,0.00,,,0.01,3.000000,,2013-02-19 13:01:00,
2013-02-19 05:11:00,33.0,32.0,-100.00,SSE,167,0.0,5.0,95,0.00,,,0.01,3.000000,,2013-02-19 13:11:00,
2013-02-19 05:32:00,32.0,32.0,-100.00,South,181,2.0,6.0,98,0.00,,,0.01,3.000000,,2013-02-19 13:32:00,
2013-02-19 05:42:00,32.0,32.0,-100.00,South,181,2.0,6.0,98,0.00,,,0.01,3.000000,,2013-02-19 13:42:00,
2013-02-19 05:52:00,32.0,32.0,-100.00,South,181,2.0,6.0,98,0.00,,,0.01,3.000000,,2013-02-19 13:52:00,
2013-02-19 06:01:00,32.0,32.0,-100.00,South,181,2.0,6.0,98,0.00,,,0.01,3.000000,,2013-02-19 14:01:00,
2013-02-19 06:11:00,32.0,32.0,-100.00,South,181,2.0,6.0,98,0.00,,,0.01,3.000000,,2013-02-19 14:11:00,
2013-02-19 06:33:00,33.0,32.0,-100.00,SSW,195,0.0,10.0,98,0.00,,,0.01,3.000000,,2013-02-19 14:33:00,
2013-02-19 06:42:00,33.0,32.0,-100.00,SSW,195,0.0,10.0,98,0.00,,,0.01,3.000000,,2013-02-19 14:42:00,
2013-02-19 06:52:00,33.0,32.0,-100.00,SSW,195,0.0,10.0,98,0.00,,,0.01,3.000000,,2013-02-19 14:52:00,
2013-02-19 07:01:00,33.0,32.0,-100.00,SSW,195,0.0,10.0,98,0.00,,,0.01,3.000000,,2013-02-19 15:01:00,
2013-02-19 07:11:00,33.0,32.0,-100.00,SSW,195,0.0,10.0,98,0.00,,,0.01,3.000000,,2013-02-19 15:11:00,
2013-02-19 07:42:00,33.0,33.0,-100.00,SSE,164,0.0,4.0,99,0.00,,,0.01,3.000000,,2013-02-19 15:42:00,
2013-02-19 07:52:00,33.0,33.0,-100.00,SSE,164,0.0,4.0,99,0.00,,,0.01,3.000000,,2013-02-19 15:52:00,
2013-02-19 08:01:00,33.0,33.0,-100.00,SSE,164,0.0,4.0,99,0.00,,,0.01,3.000000,,2013-02-19 16:01:00,
2013-02-19 08:11:00,33.0,33.0,-100.00,SSE,164,0.0,4.0,99,0.00,,,0.01,3.000000,,2013-02-19 16:11:00,
2013-02-19 08:42:00,33.0,32.0,-100.00,SE,145,0.0,3.0,98,0.00,,,0.01,13.000000,,2013-02-19 16:42:00,
2013-02-19 08:52:00,33.0,32.0,-100.00,SE,145,0.0,3.0,98,0.00,,,0.01,13.000000,,2013-02-19 16:52:00,
2013-02-19 09:01:00,33.0,32.0,-100.00,SE,145,0.0,3.0,98,0.00,,,0.01,13.000000,,2013-02-19 17:01:00,
2013-02-19 09:11:00,33.0,32.0,-100.00,SE,145,0.0,3.0,98,0.00,,,0.01,13.000000,,2013-02-19 17:11:00,
2013-02-19 09:42:00,34.0,32.0,-100.00,North,3,1.0,5.0,94,0.00,,,0.01,53.000000,,2013-02-19 17:42:00,
2013-02-19 09:52:00,34.0,32.0,-100.00,North,3,1.0,5.0,94,0.00,,,0.01,53.000000,,2013-02-19 17:52:00,
2013-02-19 10:01:00,34.0,32.0,-100.00,North,3,1.0,5.0,94,0.00,,,0.01,53.000000,,2013-02-19 18:01:00,
2013-02-19 10:11:00,34.0,32.0,-100.00,North,3,1.0,5.0,94,0.00,,,0.01,53.000000,,2013-02-19 18:11:00,
2013-02-19 10:42:00,34.0,32.0,-100.00,North,354,2.0,6.0,94,0.00,,,0.01,104.000000,,2013-02-19 18:42:00,
2013-02-19 10:52:00,34.0,32.0,-100.00,North,354,2.0,6.0,94,0.00,,,0.01,104.000000,,2013-02-19 18:52:00,
2013-02-19 11:01:00,34.0,32.0,-100.00,North,354,2.0,6.0,94,0.00,,,0.01,104.000000,,2013-02-19 19:01:00,
2013-02-19 11:11:00,34.0,32.0,-100.00,North,354,2.0,6.0,94,0.00,,,0.01,104.000000,,2013-02-19 19:11:00,
2013-02-19 11:32:00,41.0,39.0,-100.00,NNW,340,0.0,4.0,94,0.12,,,0.13,292.000000,,2013-02-19 19:32:00,
2013-02-19 11:42:00,41.0,39.0,-100.00,NNW,340,0.0,4.0,94,0.12,,,0.13,292.000000,,2013-02-19 19:42:00,
2013-02-19 11:52:00,41.0,39.0,-100.00,NNW,340,0.0,4.0,94,0.12,,,0.13,292.000000,,2013-02-19 19:52:00,
2013-02-19 12:01:00,41.0,39.0,-100.00,NNW,340,0.0,4.0,94,0.12,,,0.13,292.000000,,2013-02-19 20:01:00,
2013-02-19 12:11:00,41.0,39.0,-100.00,NNW,340,0.0,4.0,94,0.12,,,0.13,292.000000,,2013-02-19 20:11:00,
2013-02-19 12:42:00,41.0,41.0,-100.00,NNE,25,1.0,6.0,99,0.02,,,-99.99,369.000000,,2013-02-19 20:42:00,
2013-02-19 12:52:00,41.0,41.0,-100.00,NNE,25,1.0,6.0,99,0.02,,,-99.99,369.000000,,2013-02-19 20:52:00,
2013-02-19 13:01:00,41.0,41.0,-100.00,NNE,25,1.0,6.0,99,0.02,,,-99.99,369.000000,,2013-02-19 21:01:00,
2013-02-19 13:11:00,41.0,41.0,-100.00,NNE,25,1.0,6.0,99,0.02,,,-99.99,369.000000,,2013-02-19 21:11:00,
2013-02-19 13:42:00,42.0,41.0,-100.00,WSW,253,2.0,7.0,98,0.00,,,-99.99,431.000000,,2013-02-19 21:42:00,
2013-02-19 13:52:00,42.0,41.0,-100.00,WSW,253,2.0,7.0,98,0.00,,,-99.99,431.000000,,2013-02-19 21:52:00,
2013-02-19 14:01:00,42.0,41.0,-100.00,WSW,253,2.0,7.0,98,0.00,,,-99.99,431.000000,,2013-02-19 22:01:00,
2013-02-19 14:11:00,42.0,41.0,-100.00,WSW,253,2.0,7.0,98,0.00,,,-99.99,431.000000,,2013-02-19 22:11:00,
2013-02-19 14:42:00,41.0,40.0,-100.00,North,3,1.0,8.0,96,0.01,,,-99.99,284.000000,,2013-02-19 22:42:00,
2013-02-19 14:52:00,41.0,40.0,-100.00,North,3,1.0,8.0,96,0.01,,,-99.99,284.000000,,2013-02-19 22:52:00,
2013-02-19 15:01:00,41.0,40.0,-100.00,North,3,1.0,8.0,96,0.01,,,-99.99,284.000000,,2013-02-19 23:01:00,
2013-02-19 15:11:00,41.0,40.0,-100.00,North,3,1.0,8.0,96,0.01,,,-99.99,284.000000,,2013-02-19 23:11:00,
2013-02-19 15:32:00,37.0,37.0,-100.00,NNE,22,0.0,9.0,99,0.00,,,0.16,240.000000,,2013-02-19 23:32:00,
2013-02-19 15:42:00,37.0,37.0,-100.00,NNE,22,0.0,9.0,99,0.00,,,0.16,240.000000,,2013-02-19 23:42:00,
2013-02-19 15:52:00,37.0,37.0,-100.00,NNE,22,0.0,9.0,99,0.00,,,0.16,240.000000,,2013-02-19 23:52:00,
2013-02-19 16:01:00,37.0,37.0,-100.00,NNE,22,0.0,9.0,99,0.00,,,0.16,240.000000,,2013-02-20 00:01:00,
2013-02-19 16:11:00,37.0,37.0,-100.00,NNE,22,0.0,9.0,99,0.00,,,0.16,240.000000,,2013-02-20 00:11:00,
2013-02-19 16:42:00,41.0,38.0,-100.00,South,175,1.0,8.0,90,0.00,,,0.16,312.000000,,2013-02-20 00:42:00,
2013-02-19 16:52:00,41.0,38.0,-100.00,South,175,1.0,8.0,90,0.00,,,0.16,312.000000,,2013-02-20 00:52:00,
2013-02-19 17:02:00,41.0,38.0,-100.00,South,175,1.0,8.0,90,0.00,,,0.16,312.000000,,2013-02-20 01:02:00,
2013-02-19 17:11:00,41.0,38.0,-100.00,South,175,1.0,8.0,90,0.00,,,0.16,312.000000,,2013-02-20 01:11:00,
2013-02-19 17:32:00,38.0,37.0,-100.00,East,89,0.0,6.0,98,0.00,,,0.16,59.000000,,2013-02-20 01:32:00,
2013-02-19 17:42:00,38.0,37.0,-100.00,East,89,0.0,6.0,98,0.00,,,0.16,59.000000,,2013-02-20 01:42:00,
2013-02-19 17:52:00,38.0,37.0,-100.00,East,89,0.0,6.0,98,0.00,,,0.16,59.000000,,2013-02-20 01:52:00,
2013-02-19 18:01:00,38.0,37.0,-100.00,East,89,0.0,6.0,98,0.00,,,0.16,59.000000,,2013-02-20 02:01:00,
2013-02-19 18:11:00,38.0,37.0,-100.00,East,89,0.0,6.0,98,0.00,,,0.16,59.000000,,2013-02-20 02:11:00,
2013-02-19 18:42:00,36.0,36.0,-100.00,North,353,0.0,6.0,99,0.00,,,0.16,17.000000,,2013-02-20 02:42:00,
2013-02-19 18:52:00,36.0,36.0,-100.00,North,353,0.0,6.0,99,0.00,,,0.16,17.000000,,2013-02-20 02:52:00,
2013-02-19 19:01:00,36.0,36.0,-100.00,North,353,0.0,6.0,99,0.00,,,0.16,17.000000,,2013-02-20 03:01:00,
2013-02-19 19:12:00,36.0,36.0,-100.00,North,353,0.0,6.0,99,0.00,,,0.16,17.000000,,2013-02-20 03:12:00,
2013-02-19 19:32:00,34.0,31.0,-100.00,NE,34,0.0,8.0,87,0.00,,,0.16,4.000000,,2013-02-20 03:32:00,
2013-02-19 19:42:00,34.0,31.0,-100.00,NE,34,0.0,8.0,87,0.00,,,0.16,4.000000,,2013-02-20 03:42:00,
2013-02-19 19:52:00,34.0,31.0,-100.00,NE,34,0.0,8.0,87,0.00,,,0.16,4.000000,,2013-02-20 03:52:00,
2013-02-19 20:01:00,34.0,31.0,-100.00,NE,34,0.0,8.0,87,0.00,,,0.16,4.000000,,2013-02-20 04:01:00,
2013-02-19 20:11:00,34.0,31.0,-100.00,NE,34,0.0,8.0,87,0.00,,,0.16,4.000000,,2013-02-20 04:11:00,
2013-02-19 20:42:00,34.0,34.0,-100.00,ESE,107,0.0,7.0,99,0.00,,,0.16,3.000000,,2013-02-20 04:42:00,
2013-02-19 20:52:00,34.0,34.0,-100.00,ESE,107,0.0,7.0,99,0.00,,,0.16,3.000000,,2013-02-20 04:52:00,
2013-02-19 21:02:00,34.0,34.0,-100.00,ESE,107,0.0,7.0,99,0.00,,,0.16,3.000000,,2013-02-20 05:02:00,
2013-02-19 21:12:00,34.0,34.0,-100.00,ESE,107,0.0,7.0,99,0.00,,,0.16,3.000000,,2013-02-20 05:12:00,
2013-02-19 21:43:00,36.0,36.0,-100.00,SSW,198,0.0,7.0,99,0.00,,,0.16,3.000000,,2013-02-20 05:43:00,
2013-02-19 21:52:00,36.0,36.0,-100.00,SSW,198,0.0,7.0,99,0.00,,,0.16,3.000000,,2013-02-20 05:52:00,
2013-02-19 22:01:00,36.0,36.0,-100.00,SSW,198,0.0,7.0,99,0.00,,,0.16,3.000000,,2013-02-20 06:01:00,
2013-02-19 22:11:00,36.0,36.0,-100.00,SSW,198,0.0,7.0,99,0.00,,,0.16,3.000000,,2013-02-20 06:11:00,
2013-02-19 22:42:00,36.0,35.0,-100.00,NE,48,0.0,7.0,98,0.00,,,0.16,3.000000,,2013-02-20 06:42:00,
2013-02-19 22:52:00,36.0,35.0,-100.00,NE,48,0.0,7.0,98,0.00,,,0.16,3.000000,,2013-02-20 06:52:00,
2013-02-19 23:01:00,36.0,35.0,-100.00,NE,48,0.0,7.0,98,0.00,,,0.16,3.000000,,2013-02-20 07:01:00,
2013-02-19 23:11:00,36.0,35.0,-100.00,NE,48,0.0,7.0,98,0.00,,,0.16,3.000000,,2013-02-20 07:11:00,